Weather Roundup
Issued by NWS

Home | Current Version | Previous Version | Graphics & Text | Print | Product List | Glossary On
Versions: 1 2 3 4 5 6 7 8 9 10 11 12 13 14 15 16 17 18 19 20 21 22 23 24 25 26 27 28 29 30 31 32 33 34 35 36 37 38 39 40 41 42 43 44 45 46 47 48 49 50
289
NZUS93 KARX 292110
HRRWXR

CURRENT HOURLY OBSERVATIONS ACROSS
MUCH OF THE UPPER MISSISSIPPI VALLEY
NATIONAL WEATHER SERVICE LA CROSSE WI
400 PM CDT MON MAY 29 2017


...SOUTHEAST MINNESOTA...


CITY           SKY/WX    TMP DP  RH WIND       PRES   REMARKS
ROCHESTER      LGT RAIN  60  50  69 W17G32    29.87S
ROCHESTER/MAYO CLOUDY    63  48  59 W20G26    29.84F
WINONA         PTSUNNY   64  45  48 W16G25    29.82R
AUSTIN         PTSUNNY   61  46  59 W16G22    29.87S
ALBERT LEA     PTSUNNY   64  46  52 NW10G22   29.88F
DODGE CENTER   PTSUNNY   61  48  63 W16G24    29.86S
PRESTON        CLOUDY    61  48  62 W20       29.86F
OWATONNA       MOSUNNY   63  48  59 W18G26    29.87R
FARIBAULT      LGT RAIN  63  50  63 W12G18    29.86S
$$

...ELSEWHERE IN MINNESOTA...


CITY           SKY/WX    TMP DP  RH WIND       PRES   REMARKS
MINNEAPOLIS    PTSUNNY   64  47  53 W16G28    29.81F
INTNL FALLS    CLOUDY    54  42  64 NW15      29.74R
DULUTH         LGT RAIN  54  50  86 NW17G24   29.73S
RED WING       CLOUDY    61  52  72 NW8       29.81F
REDWOOD FALLS  PTSUNNY   64  46  52 NW17G29   29.90S
MANKATO        RAIN      56  51  84 NW10      29.89S
WORTHINGTON    CLOUDY    61  47  59 W23G29    29.96R
FAIRMONT       CLOUDY    62  45  53 NW24G31   29.92S
$$

...SOUTHWEST WISCONSIN...


CITY           SKY/WX    TMP DP  RH WIND       PRES   REMARKS
LA CROSSE      MOSUNNY   66  53  63 NW7       29.81F
PRAIRIE DU CHI PTSUNNY   70  41  34 W20G26    29.84S
BOSCOBEL       PTSUNNY   70  45  40 NW13G29   29.83F
LONE ROCK      LGT RAIN  68  46  45 W16G26    29.82F
PLATTEVILLE    MOSUNNY   70  45  40 W22G35    29.85F
FORT MC COY    CLOUDY    61  51  70 SW7G20    29.83S
CAMP DOUGLAS   PTSUNNY   59  50  72 W15G24    29.81R
MAUSTON-NEW LI LGT RAIN  56  51  83 W10G18    29.82R
VIROQUA        MOCLDY    66  45  46 MISG      29.83S
WIS DELLS      MOSUNNY   65  44  45 W15G21    29.81S
$$

...ELSEWHERE IN WISCONSIN...


CITY           SKY/WX    TMP DP  RH WIND       PRES   REMARKS
MILWAUKEE      MOSUNNY   72  45  37 W18G28    29.80S
MADISON        PTSUNNY   67  45  45 NW9G18    29.81F
GREEN BAY      PTSUNNY   61  50  67 NW20G32   29.76R
EAU CLAIRE     CLOUDY    62  47  57 W20G26    29.78R
BLACK RVR FLS  MOCLDY    62  46  56 W16G28    29.81R
MEDFORD        LGT RAIN  56  46  68 W16G22    29.75R
WAUSAU         CLOUDY    64  47  53 W21G29    29.73S
WIS RAPIDS     PTSUNNY   59  51  75 W13       29.80R
MARSHFIELD     RAIN      58  49  72 SW17G24   29.77R
RICE LAKE      LGT RAIN  57  51  78 W9        29.79R
$$

...NORTHEAST IOWA...


CITY           SKY/WX    TMP DP  RH WIND       PRES   REMARKS
WATERLOO       PTSUNNY   72  44  36 W15G31    29.87S
DUBUQUE        PTSUNNY   70  45  40 W20G29    29.86F
DECORAH        MOSUNNY   68  45  42 W9G21     29.84S
MASON CITY     PTSUNNY   68  43  40 NW24G36   29.91S
CHARLES CITY   PTSUNNY   68  41  37 NW25      29.88S
OELWEIN        PTSUNNY   70  43  37 W21G29    29.87S
$$

...ELSEWHERE IN IOWA...


CITY           SKY/WX    TMP DP  RH WIND       PRES   REMARKS
DES MOINES     MOSUNNY   74  39  28 W25       29.92F
IOWA CITY      MOSUNNY   75  43  31 W23G31    29.89F
FORT DODGE     CLOUDY    68  43  40 NW12G22   29.94F
MARSHALLTOWN   PTSUNNY   72  44  36 W20G26    29.89F
CEDAR RAPIDS   MOSUNNY   71  45  39 NW21G29   29.87F
$$

...NORTHERN ILLINOIS...


CITY           SKY/WX    TMP DP  RH WIND       PRES   REMARKS
CHICAGO-OHARE  MOSUNNY   75  43  31 W22G30    29.82S
CHICAGO-MIDWAY MOSUNNY   77  41  27 W22G32    29.82F
MOLINE         MOSUNNY   76  43  30 W20G33    29.87F
ROCKFORD       MOSUNNY   72  46  39 W17G30    29.85F
PEORIA         MOSUNNY   78  44  29 W13       29.88F
$$

NOTE: "FAIR" INDICATES FEW OR NO CLOUDS BELOW 12,000 FEET WITH NO
SIGNIFICANT WEATHER AND/OR OBSTRUCTIONS TO VISIBILITY. WIND
SPEEDS ARE IN MILES-PER-HOUR.




USA.gov is the U.S. government's official web portal to all federal, state and local government web resources and services.